Tracking 31028 objects as of 17-Jul-2025
HD Live streaming from Space Station
objects crossing your sky now

STARLINK-5065

Track STARLINK-5065 now!
10-day predictions
STARLINK-5065 is classified as:


NORAD ID: 55641
Int'l Code: 2023-021P
Perigee: 577.1 km
Apogee: 581.2 km
Inclination: 70.0 °
Period: 96.1 minutes
Semi major axis: 6950 km
RCS: Unknown
Launch date: February 17, 2023
Source: United States (US)
Launch site: AIR FORCE WESTERN TEST RANGE (AFWTR)
Your satellite tracking list
Your tracking list is empty




NASA's NSSDC Master Catalog

Two Line Element Set (TLE):
1 55641U 23021P   25197.93108583  .00000776  00000-0  72817-4 0  9999
2 55641  69.9995  59.0211 0002926 269.6763  90.4061 14.98333986133478
Source of the keplerian elements: AFSPC